sat.trackr.live / text

‹ back to catalog

STARLINK-6171

NORAD 56883 · 2023-083H

PAYLOAD ACTIVE UNKNOWN

§ Identity

Operator
Country
US
Launch date
2023-06-12
Launch site
AFETR
Launch vehicle
Mass (kg)
RCS (m²)

Purposes: comms

External: N2YO · Heavens-Above · Gunter

§ Orbital elements

Epoch: 2026-05-25T00:01:31.973664Z

Period
94.27 min
Inclination
43.0031°
Eccentricity
0.0000889
Mean motion
15.27580982 rev/d
Perigee alt
482.4 km
Apogee alt
483.7 km
Semi-major
6,861.2 km
B*
9.7896e-5
RAAN
14.0226°
Arg perigee
249.7470°
Mean anomaly
110.3286°
Rev number
16,330

§ Raw data

STARLINK-61711 56883U 23083H   26145.00106451  .00002433  00000+0  97896-4 0  99952 56883  43.0031  14.0226 0000889 249.7470 110.3286 15.27580982163307

JSON: /api/v1/satellites/56883 · /tle

For live sub-satellite position, see the globe view (requires WebGL).

§ Visibility from observer

Set your observer location to see the next 7 days of passes ≥ 10°. The values pass through the URL so the page stays shareable.

No JS? Fill the form by hand. The geolocation button needs JavaScript.